sat.trackr.live / text

‹ back to catalog

UNKNOWN

NORAD 87843

UNKNOWN UNKNOWN UNKNOWN

§ Identity

Operator
Country
Launch date
Launch site
Launch vehicle
Mass (kg)
RCS (m²)

External: N2YO · Heavens-Above

§ Orbital elements

Epoch: 2026-05-18T13:46:50.714976Z

Period
109.33 min
Inclination
99.6591°
Eccentricity
0.0229439
Mean motion
13.17121861 rev/d
Perigee alt
1,022.0 km
Apogee alt
1,369.5 km
Semi-major
7,573.9 km
B*
1.8472e-3
RAAN
244.5495°
Arg perigee
357.9501°
Mean anomaly
2.0656°
Rev number
58,480

§ Raw data

UNKNOWN1 87843U          26138.57419809  .00000775  00000+0  18472-2 0  99952 87843  99.6591 244.5495 0229439 357.9501   2.0656 13.17121861584808

JSON: /api/v1/satellites/87843 · /tle

For live sub-satellite position, see the globe view (requires WebGL).

§ Visibility from observer

Set your observer location to see the next 7 days of passes ≥ 10°. The values pass through the URL so the page stays shareable.

No JS? Fill the form by hand. The geolocation button needs JavaScript.